Home   Weather   Kalisz   Past weeks

Flag for Poland Past Weather in Kalisz, Poland — Yesterday and Last 2 Weeks

Now
34 °F

Low clouds.


Feels Like: 31 °F
Forecast: 27 / 34 °F
Wind: 3 mph from Northwest

Location: Kalisz

Current Time: Dec 3, 2016 at 12:35:06 pm

Latest Report: Dec 3, 2016 at 11:00 am


Visibility: 7 mi

Pressure: 30.24 "Hg

Humidity: 93%

Dew Point: 32 °F

Location of KaliszLocation

Past Weather in Kalisz — Graph

°F

Kalisz Temperature Yesterday

Maximum temperature yesterday: 42 °F (at 12:00 am)
Minimum temperature yesterday: 35 °F (at 10:00 am)
Average temperature yesterday: 37 °F

High & Low Weather Summary for the Past Weeks

 TemperatureHumidityPressure
High60 °F (Nov 21, 1:00 pm)100% (Nov 19, 6:00 pm)30.45 "Hg (Nov 19, 6:00 pm)
Low27 °F (Nov 30, 5:00 am)65% (Nov 30, 10:00 am)29.47 "Hg (Dec 2, 12:00 am)
Average39 °F92%30.05 "Hg
* Reported Nov 18 11:00 am — Dec 3 11:00 am, Kalisz, Weather by CustomWeather, © 2016

Note: Actual official high and low records may vary slightly from our data, if they occured in-between our weather recording intervals... More about our weather records

Advertising

Kalisz Weather History for the Previous 24 Hours

Scroll right to see more
 ConditionsComfort  
Time TempWeatherWind HumidityBarometerVisibility
11:00 am
Sat, Dec 3
34 °FLow clouds.3 mph93%30.24 "Hg7 mi
10:00 am32 °FLow clouds.3 mph97%30.24 "Hg7 mi
9:00 am32 °FLow clouds.6 mph96%30.22 "Hg9 mi
8:00 am32 °FLow clouds.5 mph97%30.19 "Hg12 mi
7:00 am32 °FOvercast.3 mph96%30.17 "Hg14 mi
6:00 am33 °FOvercast.5 mph95%30.15 "Hg14 mi
5:00 am33 °FOvercast.5 mph95%30.12 "Hg14 mi
4:00 am34 °FOvercast.6 mph93%30.11 "Hg19 mi
3:00 am34 °FOvercast.6 mph94%30.09 "Hg12 mi
2:00 am35 °FOvercast.7 mph93%30.08 "Hg15 mi
1:00 am35 °FOvercast.7 mph94%30.07 "Hg9 mi
12:00 am35 °FOvercast.5 mph94%30.06 "Hg11 mi
11:00 pm
Fri, Dec 2
35 °FOvercast.6 mph91%30.05 "Hg9 mi
10:00 pm35 °FOvercast.7 mph90%30.04 "Hg16 mi
9:00 pm35 °FOvercast.7 mph89%30.03 "Hg12 mi
8:00 pm35 °FOvercast.7 mph88%30.02 "Hg14 mi
7:00 pm35 °FOvercast.6 mph89%30.02 "Hg12 mi
6:00 pm36 °FOvercast.7 mph86%30.00 "Hg14 mi
5:00 pm37 °FOvercast.6 mph83%29.99 "Hg22 mi
4:00 pm37 °FOvercast.7 mph85%29.97 "Hg31 mi
3:00 pm37 °FOvercast.5 mph87%29.95 "Hg22 mi
2:00 pm37 °FOvercast.3 mph82%29.94 "Hg31 mi
1:00 pm38 °FOvercast.9 mph80%29.92 "Hg31 mi
12:00 pm37 °FOvercast.8 mph91%29.90 "Hg31 mi
Weather by CustomWeather, © 2016

See weather overviewHow to use our weather pages